Salzburg Flughafen, Austria

6:27 AM CEST on May 25, 2017 (GMT +0200)
Salzburg Flughafen

Weather History for LOWS - June, 2013

Change the Weather History Date:

Friday, June 14, 2013

  Actual Average Record
Temperature  
Mean Temperature 60 °F -  
Max Temperature 62 °F 71 °F 84 °F (2003)
Min Temperature 57 °F 53 °F 41 °F (1998)
Degree Days  
Heating Degree Days 6    
Growing Degree Days 10 (Base 50)    
Moisture  
Dew Point 54 °F    
Average Humidity 80    
Maximum Humidity 100    
Minimum Humidity 56    
Precipitation  
Precipitation 0.00 in 0.21 in - ()
Sea Level Pressure  
Sea Level Pressure 30.12 in    
Wind  
Wind Speed 7 mph ()    
Max Wind Speed 17 mph    
Max Gust Speed 34 mph    
Visibility 6.8 miles    
Events Rain    
Averages and records for this station are not official NWS values.
T = Trace of Precipitation, MM = Missing Value Source: Averaged Metar Reports

Daily Weather History Graph

Daily Weather History Graph

Search for Another Location

Airport or City:

Trip Planner

Search our weather history database for the weather conditions in past years. The results will help you decide how hot, cold, wet, or windy it might be!

Date:

Astronomy

Jun. 14, 2013 Rise Set
Actual Time 5:08 AM CEST 9:07 PM CEST
Civil Twilight 4:28 AM CEST 9:48 PM CEST
Nautical Twilight 3:31 AM CEST 10:45 PM CEST
Astronomical Twilight 1:59 AM CEST 12:17 AM CEST
Moon 10:47 AM CEST (6/14) No Moon Set
Length of Visible Light 17h 20m
Length of Day
15h 59m
Waxing Crescent, 28% of the Moon is Illuminated
Jun 14
Waxing Crescent
Jun 16
First Quarter
Jun 23
Full
Jun 30
Last Quarter
Jul 8
New

Hourly Weather History & Observations

Time (CEST) Temp. Dew Point Humidity Pressure Visibility Wind Dir Wind Speed Gust Speed Precip Events Conditions
12:20 AM 60.8 °F 53.6 °F 77% 30.01 in 6.2 mi SE 3.5 mph - N/A   Unknown
12:50 AM 62.6 °F 51.8 °F 68% 30.01 in 6.2 mi SSE 8.1 mph - N/A   Partly Cloudy
1:20 AM 60.8 °F 51.8 °F 72% 29.98 in 6.2 mi SSE 6.9 mph - N/A   Partly Cloudy
1:50 AM 60.8 °F 53.6 °F 77% 29.98 in 6.2 mi South 9.2 mph - N/A   Overcast
2:00 AM 61 °F 54 °F 71% 29.96 in 28 mi South 8.9 mph - -  
2:20 AM 62.6 °F 51.8 °F 68% 30.01 in 6.2 mi SSE 11.5 mph - N/A   Overcast
2:50 AM 66.2 °F 50.0 °F 56% 30.06 in 6.2 mi Variable 12.7 mph 34.5 mph N/A   Overcast
3:20 AM 66.2 °F 55.4 °F 68% 30.12 in 6.2 mi WNW 16.1 mph 29.9 mph N/A   Mostly Cloudy
3:50 AM 64.4 °F 53.6 °F 68% 30.15 in 6.2 mi WNW 17.3 mph 28.8 mph N/A   Mostly Cloudy
4:20 AM 62.6 °F 55.4 °F 77% 30.18 in 6.2 mi NNW 9.2 mph - N/A Rain Light Rain Showers
4:50 AM 62.6 °F 51.8 °F 68% 30.18 in 6.2 mi WNW 11.5 mph - N/A Rain Light Rain Showers
5:00 AM 63 °F 52 °F 59% 30.16 in 25 mi WNW 11.2 mph - - Rain Light Rain Showers
5:20 AM 62.6 °F 53.6 °F 72% 30.18 in 6.2 mi WNW 10.4 mph - N/A Rain Light Rain Showers
5:50 AM 60.8 °F 53.6 °F 77% 30.18 in 6.2 mi WNW 10.4 mph - N/A   Mostly Cloudy
6:20 AM 59.0 °F 55.4 °F 88% 30.18 in 6.2 mi NW 9.2 mph - N/A Rain Light Rain Showers
6:50 AM 59.0 °F 53.6 °F 82% 30.18 in 6.2 mi NW 10.4 mph - N/A   Mostly Cloudy
7:20 AM 59.0 °F 53.6 °F 82% 30.18 in 6.2 mi NNW 8.1 mph - N/A   Mostly Cloudy
7:50 AM 59.0 °F 53.6 °F 82% 30.18 in 6.2 mi WNW 10.4 mph - N/A   Mostly Cloudy
8:00 AM 59 °F 53 °F 76% 30.19 in 12 mi WNW 11.2 mph - -   Overcast
8:20 AM 59.0 °F 53.6 °F 82% 30.21 in 6.2 mi NW 10.4 mph - N/A   Mostly Cloudy
8:50 AM 57.2 °F 53.6 °F 88% 30.21 in 6.2 mi WNW 11.5 mph - N/A Rain Light Rain Showers
9:20 AM 57.2 °F 53.6 °F 88% 30.21 in 6.2 mi WNW 8.1 mph - N/A   Mostly Cloudy
9:50 AM 57.2 °F 53.6 °F 88% 30.21 in 6.2 mi WNW 8.1 mph - N/A   Mostly Cloudy
10:20 AM 59.0 °F 53.6 °F 82% 30.21 in 6.2 mi WNW 9.2 mph - N/A   Mostly Cloudy
10:50 AM 59.0 °F 53.6 °F 82% 30.21 in 6.2 mi NW 6.9 mph - N/A   Mostly Cloudy
11:00 AM 59 °F 53 °F 75% 30.21 in 7 mi NW 6.7 mph - -   Overcast
11:20 AM 59.0 °F 53.6 °F 82% 30.21 in 6.2 mi NW 5.8 mph - N/A   Mostly Cloudy
11:50 AM 60.8 °F 53.6 °F 77% 30.18 in 6.2 mi WNW 3.5 mph - N/A   Mostly Cloudy
12:20 PM 60.8 °F 53.6 °F 77% 30.18 in 6.2 mi NNW 6.9 mph - N/A   Mostly Cloudy
12:50 PM 59.0 °F 53.6 °F 82% 30.18 in 6.2 mi NNW 9.2 mph - N/A   Mostly Cloudy
1:20 PM 59.0 °F 53.6 °F 82% 30.15 in 6.2 mi North 8.1 mph - N/A   Mostly Cloudy
1:50 PM 60.8 °F 53.6 °F 77% 30.15 in 6.2 mi NNW 6.9 mph - N/A   Mostly Cloudy
2:00 PM 60 °F 53 °F 72% 30.15 in 12 mi NNW 6.7 mph - -   Partly Cloudy
2:20 PM 60.8 °F 53.6 °F 77% 30.15 in 6.2 mi North 5.8 mph - N/A   Mostly Cloudy
2:50 PM 60.8 °F 53.6 °F 77% 30.15 in 6.2 mi NW 5.8 mph - N/A   Mostly Cloudy
3:20 PM 60.8 °F 53.6 °F 77% 30.12 in 6.2 mi West 4.6 mph - N/A   Mostly Cloudy
3:50 PM 60.8 °F 53.6 °F 77% 30.12 in 6.2 mi West 5.8 mph - N/A   Mostly Cloudy
4:20 PM 60.8 °F 55.4 °F 82% 30.12 in 6.2 mi West 4.6 mph - N/A   Mostly Cloudy
4:50 PM 62.6 °F 55.4 °F 77% 30.12 in 6.2 mi West 3.5 mph - N/A   Mostly Cloudy
5:00 PM 62 °F 55 °F 73% 30.11 in 16 mi West 4.5 mph - -   Overcast
5:20 PM 60.8 °F 55.4 °F 82% 30.12 in 6.2 mi Variable 2.3 mph - N/A Rain Light Rain Showers
5:50 PM 60.8 °F 57.2 °F 88% 30.09 in 6.2 mi SW 4.6 mph - N/A   Mostly Cloudy
6:20 PM 62.6 °F 55.4 °F 77% 30.09 in 6.2 mi Variable 2.3 mph - N/A   Mostly Cloudy
6:50 PM 62.6 °F 55.4 °F 77% 30.09 in 6.2 mi Variable 1.2 mph - N/A   Mostly Cloudy
7:20 PM 62.6 °F 55.4 °F 77% 30.09 in 6.2 mi Variable 1.2 mph - N/A   Mostly Cloudy
7:50 PM 60.8 °F 55.4 °F 82% 30.09 in 6.2 mi Variable 1.2 mph - N/A Rain Light Rain Showers
8:00 PM 61 °F 56 °F 79% 30.08 in 12 mi 2.2 mph - - Rain Light Rain Showers
8:20 PM 60.8 °F 57.2 °F 88% 30.06 in 5.0 mi Variable 2.3 mph - N/A Rain Light Rain Showers
8:50 PM 59.0 °F 57.2 °F 94% 30.04 in 6.2 mi SSE 3.5 mph - N/A   Scattered Clouds
9:20 PM 59.0 °F 57.2 °F 94% 30.04 in 6.2 mi Variable 2.3 mph - N/A   Partly Cloudy
9:50 PM 59.0 °F 57.2 °F 94% 30.04 in 6.2 mi ESE 2.3 mph - N/A   Partly Cloudy
10:20 PM 59.0 °F 57.2 °F 94% 30.04 in 6.2 mi NNE 2.3 mph - N/A   Scattered Clouds
10:50 PM 57.2 °F 55.4 °F 94% 30.06 in 6.2 mi WNW 5.8 mph - N/A   Mostly Cloudy
11:00 PM 58 °F 56 °F 91% 30.06 in 12 mi WNW 6.7 mph - -   Partly Cloudy
11:20 PM 57.2 °F 57.2 °F 100% 30.06 in 6.2 mi West 4.6 mph - N/A   Mostly Cloudy
11:50 PM 59.0 °F 57.2 °F 94% 30.09 in 6.2 mi WNW 8.1 mph - N/A   Light Drizzle